Location: Davidschlag
(48.4333°N, 14.2833°E)
Time: 04:28:10
(UTC+00:00)

Cosmos 2297 Rocket - Pass Details

Date: 27 February 2020
Orbit: 838 x 845 km, 71.0° (Epoch: 02 April)

Event Time Altitude Azimuth Distance (km) Brightness Sun altitude
Rises 17:54:27 0° 335° (NNW) 3,415 5.7 -12.7°
Reaches altitude 10° 17:57:12 10° 346° (NNW) 2,477 4.8 -13.1°
Maximum altitude 18:02:13 31° 48° (NE) 1,450 3.1 -13.9°
Enters shadow 18:04:55 21° 92° (E) 1,808 3.3 -14.4°
